Terug naar catalogus

STARLINK-33675

ActiefCommunicatieVLEO
NORAD 63423·PAYLOAD·🇺🇸 United States

Gelanceerd Mar 31, 2025 vanaf Cape Canaveral Space Force Station

Loading…

Volgende Passages (komende 24 uur)

TLE

VersSource: CelesTrak SupGP

Epoch: Sep 14, 2026, 23:02 UTC

1 63423C 25065AA  26257.96020833 -.00062121  00000+0 -22523-2 0  2575
2 63423  42.9999 117.7877 0001282 267.3672 331.4290 15.27576352    12

Volg STARLINK-33675 in realtime met AllMySat

Download on the App Store